fedbid.com alexa rank chart, fedbid.com alexa rank daily changes

fedbid.com alexa rank chart, fedbid.com alexa rank daily changes

fedbid.com
Actual rank:
262 053

RANK HISTORY

Date Rank Diff
2017/03/26 262 053 -6 878
2017/03/25 268 931 +4 212
2017/03/24 264 719 +14 468
2017/03/23 250 251 +7 026
2017/03/22 243 225 +16 671
2017/03/21 226 554 +2 904
2017/03/20 223 650 +6 033
2017/03/19 217 617 +785
2017/03/18 216 832 +4 656
2017/03/17 212 176 +3 538
2017/03/16 208 638 -1 903
2017/03/15 210 541 -831
2017/03/14 211 372 -331
2017/03/13 211 703 +1 069
2017/03/12 210 634 +6 090
2017/03/11 204 544 +3 957
2017/03/10 200 587 +3 845
2017/03/09 196 742 +2 194
2017/03/08 194 548 +1 388
2017/03/07 193 160 +11 175
2017/03/06 181 985 +828
2017/03/01 181 157 +6 479
2017/02/28 174 678 +2 634
2017/02/27 172 044 +1 729
2017/02/26 170 315 +3 138
2017/02/25 167 177 +217
2017/02/24 166 960 -6 890
2017/02/23 173 850 -5 491
2017/02/22 179 341 -6 032
2017/02/21 185 373 +482
2017/02/20 184 891 -3 375
2017/02/19 188 266 +1 959
2017/02/18 186 307 -6 947
2017/02/17 193 254 -5 363
2017/02/16 198 617 -4 003
2017/02/15 202 620 +2 756
2017/02/14 199 864 +2 591
2017/02/13 197 273 +838
2017/02/12 196 435 -1 915
2017/02/11 198 350 -5 307
2017/02/10 203 657 -1 684
2017/02/09 205 341 -6 303
2017/02/08 211 644 -4 071
2017/02/07 215 715 +2 775
2017/02/06 212 940 +6 902
2017/02/05 206 038 -3 901
2017/02/04 209 939 -1 476
2017/02/03 211 415 -4 858
2017/02/02 216 273 -2 178
2017/02/01 218 451 -2 481
2017/01/31 220 932 -2 686
2017/01/30 223 618 -2 769
2017/01/29 226 387 -7 206
2017/01/28 233 593 -3 922
2017/01/27 237 515 -6 067
2017/01/26 243 582 -5 836
2017/01/25 249 418

WIDGET FOR YOUR SITE

DOMAINS WITH THE NEAREST RANK

Domain Rank
baidu.cn 262 048
kinoparkinza.pw 262 049
vectorcharacters.net 262 050
nyist.net 262 051
aboutporn.biz 262 052
fedbid.com 262 053
enfo.fi 262 054
kusc.org 262 055
recomendacaodenotebooks.com.br 262 056
symptomeundbehandlung.com 262 057
sahmy.com 262 058

DOMAINS WITH THE NEAREST RANK BY TLD .com

Domain Rank
esenshop.com 262 036
urban75.com 262 039
techlog360.com 262 042
aakasha.com 262 043
mouradonlaya.com 262 046
fedbid.com 262 053
symptomeundbehandlung.com 262 057
sahmy.com 262 058
colorkinetics.com 262 059
wiki-master.com 262 062
location-u.com 262 063